{"data":{"norad_id":56730,"epoch":"2026-09-19T13:17:57.162912Z","epoch_age_seconds":97243,"freshness":"FRESH","line1":"1 56730U 23068W   26262.55413383  .00000640  00000+0  81177-4 0  9997","line2":"2 56730  86.6838 355.2095 0002381  90.5285 269.6209 14.80036749180324","mean_motion":14.80036749,"eccentricity":0.0002381,"inclination_deg":86.6838,"raan_deg":355.2095,"arg_perigee_deg":90.5285,"mean_anomaly_deg":269.6209,"bstar":8.1177e-5,"rev_number":18032,"period_min":97.294881425948,"perigee_km":627.53968954549,"apogee_km":630.87658730041,"semimajor_km":7007.3451384229,"source":"CELESTRAK","updated_at":"2026-09-20T09:00:36.358173Z"}}